Other Public Products
Issued by NWS Grand Forks, ND

Home | Current Version | Previous Version | Text Only | Print | Product List | Glossary On
Versions: 1 2 3 4 5 6 7 8 9 10 11 12 13 14 15 16 17 18 19 20 21 22 23 24 25 26 27 28 29 30 31 32 33 34 35 36 37 38 39 40 41 42 43 44 45 46 47 48 49 50
000
FPUS83 KFGF 301531
OPUFGF
PRAIRIE TO PINES WEATHER ROUNDUP
NATIONAL WEATHER SERVICE EASTERN NORTH DAKOTA/GRAND FORKS ND
1000 AM CDT SAT MAY 30 2015

 **SATELLITE DATA USED TO AUGMENT SKY COVER AT AUTOMATED STATIONS**
 *****  WEATHER ACROSS EASTERN NORTH DAKOTA  *****

CITY           SKY/WX    TMP DP  RH WIND       PRES   REMARKS
GRAND FORKS    MOSUNNY   42  27  55 N14G22    30.41F
GRAND FORKS AF SUNNY     43  26  50 NE10      30.41F
GRAND CITY NWS   N/A     43 N/A N/A N9          N/A
BUXTON           N/A     43  29  57 N16         N/A
DEVILS LAKE    SUNNY     41  21  45 NE13      30.41S
FARGO          SUNNY     44  31  60 NE13      30.38S
WAHPETON ARPT  SUNNY     45  34  65 N10       30.36S
$$

 *****  WEATHER ACROSS CENTRAL AND WESTERN NORTH DAKOTA  *****

CITY           SKY/WX    TMP DP  RH WIND       PRES   REMARKS
JAMESTOWN      SUNNY     42  28  57 NE13      30.40S
BISMARCK       SUNNY     45  29  53 E10       30.40F
MINOT          PTSUNNY   42  28  57 SE10      30.40S
MINOT AFB      PTSUNNY   46  32  57 SE13      30.40S
GARRISON         N/A     44  31  60 SE14      30.38F
WILLISTON      MOSUNNY   48  35  60 SE18G24   30.31F
DICKINSON      MOSUNNY   48  37  65 SE20      30.29F
HETTINGER      MOSUNNY   47  38  71 SE15      30.31F
$$

 *****  OTHER OBSERVATIONS NORTHEAST NORTH DAKOTA  *****

CITY           SKY/WX    TMP DP  RH WIND       PRES   REMARKS
WALHALLA         N/A     41  27  56 MISG      30.44F
LANGDON        FAIR      43  25  49 N12       30.42S
CAVALIER       FAIR      39  28  65 N9        30.44S
GRAFTON        FAIR      41  28  60 NE13      30.44S
CANDO          FAIR      41  23  48 NE9G16    30.43S
FORT TOTTEN      N/A     43  24  47 NE7       29.95S
ROLLA          FAIR      37  25  60 NE8       30.43S
RUGBY          NOT AVBL
 ***** THE ABOVE OBSERVATIONS ARE NON NWS ARE NOT QUALITY
        CONTROLLED AND MAY MIS-REPORT RAIN FOR SNOW...
$$

 *****  OTHER OBSERVATIONS SOUTHEAST NORTH DAKOTA *****

CITY           SKY/WX    TMP DP  RH WIND       PRES   REMARKS
COOPERSTOWN    NOT AVBL
VALLEY CITY    FAIR      41  28  60 N8        30.40S
OAKES            N/A     41  32  70 N14       30.38F
GWINNER        NOT AVBL
SHEYENNE NWR     N/A     42  29  61 N13       29.95
BUFFALO        NOT AVBL
WYNDMERE         N/A     43  36  75 N12         N/A
 ***** THE ABOVE OBSERVATIONS ARE NON NWS ARE NOT QUALITY
       CONTROLLED AND MAY MIS-REPORT RAIN FOR SNOW...
$$

  *****  WEATHER ACROSS NORTHERN MINNESOTA  *****

CITY           SKY/WX    TMP DP  RH WIND       PRES   REMARKS
FLAG ISLAND    SUNNY     39  27  60 N9        30.39S
WARROAD        MOSUNNY   41  28  60 N12       30.40S
ROSEAU         SUNNY     43  28  56 NE5       30.40S
HALLOCK        SUNNY     43  27  52 N9        30.42F
THF RVR FALLS  SUNNY     41  27  56 N9        30.39S
HALSTAD          N/A     45  27  48 N14         N/A
FOSSTON        SUNNY     43  36  75 N9        30.37R
BAUDETTE       MOSUNNY   42  28  57 N9        30.37S
WASKISH        SUNNY     45  30  57 N7        30.36S
CROOKSTON      SUNNY     43  28  56 NE9       30.41R
$$
  *****  WEATHER ACROSS CENTRAL AND WEST MINNESOTA  *****

CITY           SKY/WX    TMP DP  RH WIND       PRES   REMARKS
BEMIDJI        MOSUNNY   42  31  63 N12       30.34R
PARK RAPIDS    MOSUNNY   45  30  55 NE9       30.32R
WADENA         SUNNY     45  34  65 N7G16     30.31S
DETROIT LAKES  SUNNY     43  32  65 NW6       30.34S
MOORHEAD       SUNNY     43  32  65 N12       30.39S
FERGUS FALLS   SUNNY     46  36  66 N12       30.35S
ELBOW LAKE     PTSUNNY   47  38  71 N10G16    30.32F
MORRIS MN      MOSUNNY   48  39  71 N14       30.31S
STAPLES        SUNNY     45  30  57 N14       30.31S
WHEATON        MOSUNNY   43  36  75 N12       30.36F
$$
  *****  WEATHER ELSEWHERE ACROSS MINNESOTA  *****

CITY           SKY/WX    TMP DP  RH WIND       PRES   REMARKS
DULUTH         MOSUNNY   47  32  56 N16       30.26R
INTRNTL FALLS  PTSUNNY   40  26  57 N10       30.35S
ELY            NOT AVBL
CLOQUET        SUNNY     48  34  57 N6G17     30.27R
BRAINERD       SUNNY     46  33  60 N14       30.30R
HIBBING        MOSUNNY   44  30  57 N10       30.31R
ALEXANDRIA     MOSUNNY   48  36  63 NE12      30.31S
SAINT CLOUD    MOSUNNY   49  36  61 N10G21    30.26S
MINNEAPOLIS    PTSUNNY   52  39  61 N16       30.22R
$$

  *****  WEATHER ACROSS SOUTH DAKOTA  *****

CITY           SKY/WX    TMP DP  RH WIND       PRES   REMARKS
SIOUX FALLS    MOSUNNY   50  41  71 NE15      30.28R
BROOKINGS      MOSUNNY   46  39  76 NE13      30.30S
WATERTOWN      SUNNY     46  37  71 NE13      30.30S
HURON          SUNNY     47  35  63 N14       30.34S
SISSETON         N/A     44  38  79 NE14      30.35S
ABERDEEN       SUNNY     44  32  62 N15       30.38F
MITCHELL       SUNNY     49  40  71 N15       30.32F
PIERRE         SUNNY     47  36  65 NE7       30.36S
MOBRIDGE       SUNNY     46  31  55 E9        30.36F
RAPID CITY     MOSUNNY   50  40  68 S16       30.28F
$$

  *****  SOME WEATHER IN NEARBY STATES *****

CITY           SKY/WX    TMP DP  RH WIND       PRES   REMARKS
GLASGOW MT     CLOUDY    51  38  60 E20       30.16F
GREAT FALLS MT PTSUNNY   61  49  64 CALM      30.00S
CHEYENNE WY    SUNNY     53  45  74 S7        30.28F
SCOTTSBLUFF NE PTSUNNY   55  47  74 SE12      30.27F
OMAHA NE       CLOUDY    54  46  74 N15G25    30.18R
DES MOINES IA  CLOUDY    58  52  80 N16       30.09R
DAVENPORT IA   CLOUDY    68  64  87 S7        29.98R
CHICAGO IL     LGT RAIN  68  63  84 CALM      29.99R
EAU CLAIRE WI  CLOUDY    54  45  71 N9        30.16R
LA CROSSE WI   CLOUDY    57  51  80 N12       30.11R
$$

  *****  SOME NATIONAL WEATHER *****

CITY           SKY/WX    TMP DP  RH WIND       PRES   REMARKS
LA GUARDIA NY  MOSUNNY   79  64  60 S12       30.18F
RALEIGH NC     PTSUNNY   79  67  66 VRB3      30.23F
ATLANTA GA     MOSUNNY   78  65  63 SE5       30.19S
NEW ORLEANS LA PTSUNNY   83  68  60 SE3       30.07F
OKLAHOMA CITY  CLOUDY    59  52  77 N20G30    30.16R
ALBUQUERQUE NM MOSUNNY   66  46  48 SE21G28   30.30R
SALT LAKE CITY PTSUNNY   67  44  43 S15       30.10S
LOS ANGELES CA CLOUDY    59  57  93 NW5       29.97R FOG
BOISE ID       CLOUDY    68  47  46 NW6       29.94R
SEATTLE WA     CLOUDY    52  46  82 SW8       29.99R
$$

*** WEATHER ACROSS MANITOBA...SASKATCHEWAN AND ONTARIO ***
                ***ONTARIO***

CITY           SKY/WX    TMP DP  RH WIND       PRES   REMARKS
GERALDTON      PTSUNNY   37  30  75 NW13G21   30.22R
THUNDER BAY    MOSUNNY   45  28  53 N16G24    30.27S
SIOUX LOOKOUT  MOSUNNY   36  21  55 N9G18     30.36R
TORONTO        PTSUNNY   81  66  61 SW14G20   29.95S
BIG TROUT LK   FLURRIES  28  25  86 NW10      30.35R WCI  19
PICKLE LAKE    CLOUDY    32  23  69 NW8G18    30.32R WCI  25
DRYDEN         SUNNY     37  23  56 NE3       30.35S
KENORA         MOSUNNY   39  23  52 N6        30.38S
$$
                *** MANITOBA***

CITY           SKY/WX    TMP DP  RH WIND       PRES   REMARKS
BRANDON        PTSUNNY   41  27  56 SE8       30.45
DAUPHIN        CLOUDY    43  30  61 SE6       30.45F
ISLAND LAKE    CLOUDY    34  25  69 N6        30.43S
PILOT MOUND      N/A     39  23  52 NE9         N/A
THE PAS        MOSUNNY   45  21  39 SW12      30.41F
THOMPSON       MOSUNNY   45  23  42 W15       30.34F
WINNIPEG       MOSUNNY   41  27  56 NE8G17    30.46S
LYNN LAKE      SUNNY     50  25  37 W12G18    30.26F
$$
                ***SASKATCHEWAN***

CITY           SKY/WX    TMP DP  RH WIND       PRES   REMARKS
ESTEVAN        PTSUNNY   43  30  61 SE15G22   30.35F
KINDERSLEY     PTSUNNY   50  28  43 SE20      30.17S
LLOYDMINSTER   MOSUNNY   54  27  35 SE21      30.19F
PRINCE ALBERT  PTSUNNY   50  28  43 S9        30.33F
REGINA         CLOUDY    45  30  57 SE20G28   30.32F
YORKTON        SUNNY     43  27  52 S7        30.39F
N. BATTLEFORD  MOSUNNY   50  28  43 SE15      30.27F


USA.gov is the U.S. government's official web portal to all federal, state and local government web resources and services.